DW2149 Weather Reports


time (UTC)temp
C
wind
direction
speed
KPH
gust
KPH
rain 1hr
cm
rain 24hr
cm
rain mn
cm
humidity
%
barometer
mb
20260906191939 25 216 1.6 9.7 0.00 0.00 0.00 38 1013.3
20260906191732 25 217 0.0 8.0 0.00 0.00 0.00 38 1013.2
20260906191527 25 216 0.0 8.0 0.00 0.00 0.00 39 1013.2
20260906191314 25 229 1.6 8.0 0.00 0.00 0.00 39 1013.2
20260906191112 25 234 0.0 6.4 0.00 0.00 0.00 37 1013.2
20260906190902 25 234 1.6 11.3 0.00 0.00 0.00 35 1013.2
20260906190650 25 235 1.6 11.3 0.00 0.00 0.00 35 1013.2
20260906190443 25 217 1.6 11.3 0.00 0.00 0.00 35 1013.3
20260906190235 25 196 1.6 11.3 0.00 0.00 0.00 36 1013.2
20260906190026 25 180 3.2 11.3 0.00 0.00 0.00 36 1013.2
20260906185820 25 217 1.6 11.3 0.00 0.00 0.00 35 1013.2
20260906185431 25 227 1.6 11.3 0.00 0.00 0.00 35 1013.1
20260906185227 25 234 3.2 11.3 0.00 0.00 0.00 35 1013.2
20260906184837 25 214 3.2 9.7 0.00 0.00 0.00 35 1013.1
20260906184451 25 225 1.6 9.7 0.00 0.00 0.00 35 1013.2
20260906184246 24 191 1.6 9.7 0.00 0.00 0.00 36 1013.1
20260906184033 23 234 1.6 8.0 0.00 0.00 0.00 37 1013.1
20260906183828 23 211 0.0 8.0 0.00 0.00 0.00 38 1013.1
20260906183622 23 221 0.0 8.0 0.00 0.00 0.00 39 1013.1
20260906183413 22 223 1.6 8.0 0.00 0.00 0.00 40 1013.1
20260906183207 22 215 0.0 8.0 0.00 0.00 0.00 40 1013.2
20260906182959 22 215 1.6 8.0 0.00 0.00 0.00 41 1013.1
20260906182754 22 217 1.6 9.7 0.00 0.00 0.00 40 1013.2
20260906182547 22 217 1.6 9.7 0.00 0.00 0.00 41 1013.2
20260906182341 22 223 1.6 9.7 0.00 0.00 0.00 41 1013.2
20260906182128 22 222 1.6 9.7 0.00 0.00 0.00 41 1013.2
20260906181734 21 165 1.6 9.7 0.00 0.00 0.00 41 1013.2
20260906181526 21 215 1.6 9.7 0.00 0.00 0.00 41 1013.3
20260906181316 21 223 3.2 9.7 0.00 0.00 0.00 42 1013.2
20260906181108 21 223 3.2 9.7 0.00 0.00 0.00 42 1013.2
20260906180858 21 224 3.2 9.7 0.00 0.00 0.00 42 1013.2
20260906180504 21 222 1.6 9.7 0.00 0.00 0.00 42 1013.2
20260906180259 21 201 1.6 9.7 0.00 0.00 0.00 43 1013.2
20260906180049 21 154 1.6 9.7 0.00 0.00 0.00 43 1013.3
20260906175842 21 211 1.6 9.7 0.00 0.00 0.00 44 1013.2
20260906175640 20 211 0.0 9.7 0.00 0.00 0.00 44 1013.2
20260906175437 20 209 1.6 9.7 0.00 0.00 0.00 44 1013.2
20260906175229 20 217 0.0 9.7 0.00 0.00 0.00 44 1013.3
20260906175024 20 217 0.0 9.7 0.00 0.00 0.00 44 1013.3
20260906174820 20 218 0.0 6.4 0.00 0.00 0.00 44 1013.3
20260906174616 20 218 0.0 6.4 0.00 0.00 0.00 45 1013.3
20260906174409 20 220 0.0 6.4 0.00 0.00 0.00 46 1013.3
20260906174156 20 221 0.0 6.4 0.00 0.00 0.00 46 1013.3
20260906173948 20 221 0.0 6.4 0.00 0.00 0.00 46 1013.2
20260906173738 20 178 0.0 1.6 0.00 0.00 0.00 46 1013.3
20260906173346 19 216 0.0 0.0 0.00 0.00 0.00 47 1013.2
20260906173135 19 216 0.0 1.6 0.00 0.00 0.00 47 1013.2
20260906172924 19 216 0.0 9.7 0.00 0.00 0.00 48 1013.2
20260906172713 18 216 1.6 9.7 0.00 0.00 0.00 48 1013.2
20260906172500 18 216 1.6 9.7 0.00 0.00 0.00 48 1013.2
20260906172249 18 215 1.6 8.0 0.00 0.00 0.00 48 1013.2
20260906172038 18 218 1.6 8.0 0.00 0.00 0.00 49 1013.2
20260906171649 18 219 0.0 8.0 0.00 0.00 0.00 51 1013.2
20260906171443 18 220 0.0 6.4 0.00 0.00 0.00 51 1013.2
20260906171240 17 221 0.0 6.4 0.00 0.00 0.00 52 1013.2
20260906171034 17 248 0.0 3.2 0.00 0.00 0.00 55 1013.1
20260906170830 17 248 0.0 3.2 0.00 0.00 0.00 56 1013.1
20260906170618 17 248 0.0 1.6 0.00 0.00 0.00 56 1013.1
20260906170415 17 223 0.0 8.0 0.00 0.00 0.00 56 1013.2
20260906170205 16 223 0.0 8.0 0.00 0.00 0.00 57 1013.2
20260906165952 16 234 0.0 0.0 0.00 0.00 0.00 58 1013.2
20260906165748 16 234 1.6 3.2 0.00 0.00 0.00 59 1013.3
20260906165357 16 234 1.6 9.7 0.00 0.00 0.00 59 1013.3
20260906165152 15 234 0.0 9.7 0.00 0.00 0.00 61 1013.2
20260906164945 15 216 0.0 3.2 0.00 0.00 0.00 63 1013.2
20260906164740 15 226 0.0 0.0 0.00 0.00 0.00 64 1013.2
20260906164528 15 226 0.0 4.8 0.00 0.00 0.00 64 1013.3
20260906164137 14 226 0.0 3.2 0.00 0.00 0.00 67 1013.3
20260906163933 14 226 0.0 0.0 0.00 0.00 0.00 68 1013.3
20260906163730 14 226 0.0 4.8 0.00 0.00 0.00 69 1013.3
20260906163521 13 226 0.0 0.0 0.00 0.00 0.00 70 1013.2
20260906163310 13 226 0.0 8.0 0.00 0.00 0.00 72 1013.3
20260906163108 13 225 0.0 1.6 0.00 0.00 0.00 72 1013.3
20260906162906 13 225 0.0 0.0 0.00 0.00 0.00 72 1013.2
20260906162656 13 225 0.0 4.8 0.00 0.00 0.00 73 1013.2
20260906162114 12 212 0.0 1.6 0.00 0.00 0.00 75 1013.3
20260906161908 12 212 0.0 6.4 0.00 0.00 0.00 76 1013.3
20260906161701 12 212 0.0 6.4 0.00 0.00 0.00 76 1013.3
20260906161455 12 212 0.0 6.4 0.00 0.00 0.00 76 1013.3
20260906161243 12 212 0.0 3.2 0.00 0.00 0.00 77 1013.3
20260906161036 11 212 0.0 0.0 0.00 0.00 0.00 77 1013.3
20260906160832 11 212 0.0 1.6 0.00 0.00 0.00 77 1013.3
20260906160626 11 212 0.0 0.0 0.00 0.00 0.00 77 1013.3
20260906160414 11 212 0.0 0.0 0.00 0.00 0.00 77 1013.3
20260906160028 11 212 0.0 0.0 0.00 0.00 0.00 77 1013.3
20260906155822 11 212 0.0 0.0 0.00 0.00 0.00 76 1013.3
20260906155610 11 212 0.0 0.0 0.00 0.00 0.00 76 1013.3
20260906155403 11 212 0.0 0.0 0.00 0.00 0.00 76 1013.3
20260906155153 11 212 0.0 0.0 0.00 0.00 0.00 75 1013.3
20260906154948 11 212 0.0 0.0 0.00 0.00 0.00 75 1013.4
20260906154745 11 212 0.0 0.0 0.00 0.00 0.00 75 1013.4
20260906154540 10 212 0.0 0.0 0.00 0.00 0.00 75 1013.4
20260906154327 10 212 0.0 0.0 0.00 0.00 0.00 74 1013.4
20260906154124 10 212 0.0 0.0 0.00 0.00 0.00 74 1013.5
20260906153920 10 212 0.0 0.0 0.00 0.00 0.00 74 1013.4
20260906153707 10 212 0.0 0.0 0.00 0.00 0.00 74 1013.5
20260906153315 10 212 0.0 0.0 0.00 0.00 0.00 73 1013.5
20260906153105 10 212 0.0 0.0 0.00 0.00 0.00 73 1013.5
20260906152858 10 212 0.0 0.0 0.00 0.00 0.00 73 1013.5
20260906152502 10 212 0.0 0.0 0.00 0.00 0.00 72 1013.4
20260906152254 10 212 0.0 0.0 0.00 0.00 0.00 72 1013.5
20260906152041 10 212 0.0 0.0 0.00 0.00 0.00 72 1013.4
20260906151839 10 212 0.0 0.0 0.00 0.00 0.00 72 1013.4
20260906151635 10 212 0.0 0.0 0.00 0.00 0.00 71 1013.4
20260906151433 10 212 0.0 0.0 0.00 0.00 0.00 71 1013.4
20260906151040 10 212 0.0 0.0 0.00 0.00 0.00 71 1013.4
20260906150838 10 212 0.0 0.0 0.00 0.00 0.00 71 1013.4
20260906150445 10 212 0.0 0.0 0.00 0.00 0.00 70 1013.4
20260906150244 10 212 0.0 0.0 0.00 0.00 0.00 70 1013.4
20260906150033 10 212 0.0 0.0 0.00 0.00 0.00 70 1013.4
20260906145638 10 212 0.0 0.0 0.00 0.00 0.00 70 1013.4
20260906145432 10 212 0.0 0.0 0.00 0.00 0.00 70 1013.4
20260906145229 10 212 0.0 0.0 0.00 0.00 0.00 70 1013.4
20260906145018 10 212 0.0 0.0 0.00 0.00 0.00 69 1013.4
20260906144813 10 212 0.0 0.0 0.00 0.00 0.00 69 1013.4
20260906144422 10 212 0.0 0.0 0.00 0.00 0.00 69 1013.2
20260906144209 10 212 0.0 0.0 0.00 0.00 0.00 69 1013.3
20260906143958 10 212 0.0 0.0 0.00 0.00 0.00 69 1013.2
20260906143747 10 212 0.0 0.0 0.00 0.00 0.00 69 1013.2
20260906143354 10 212 0.0 0.0 0.00 0.00 0.00 68 1013.3
20260906143151 10 212 0.0 0.0 0.00 0.00 0.00 68 1013.3
20260906142805 10 212 0.0 0.0 0.00 0.00 0.00 68 1013.3
20260906142553 10 212 0.0 0.0 0.00 0.00 0.00 68 1013.2
20260906142340 10 212 0.0 0.0 0.00 0.00 0.00 68 1013.2
20260906141802 10 212 0.0 0.0 0.00 0.00 0.00 68 1013.2
20260906141559 10 212 0.0 0.0 0.00 0.00 0.00 68 1013.1
20260906141354 10 212 0.0 0.0 0.00 0.00 0.00 68 1013.2
20260906141150 10 212 0.0 0.0 0.00 0.00 0.00 67 1013.2
20260906140939 10 212 0.0 0.0 0.00 0.00 0.00 67 1013.2
20260906140551 10 212 0.0 0.0 0.00 0.00 0.00 67 1013.2
20260906140343 10 212 0.0 0.0 0.00 0.00 0.00 67 1013.2
20260906140139 10 212 0.0 0.0 0.00 0.00 0.00 67 1013.2
20260906135929 10 212 0.0 0.0 0.00 0.00 0.00 67 1013.2
20260906135725 10 212 0.0 0.0 0.00 0.00 0.00 67 1013.2
20260906135513 10 212 0.0 0.0 0.00 0.00 0.00 67 1013.2
20260906135307 10 212 0.0 0.0 0.00 0.00 0.00 67 1013.1
20260906135103 10 212 0.0 0.0 0.00 0.00 0.00 66 1013.1
20260906134853 10 212 0.0 0.0 0.00 0.00 0.00 66 1013.1
20260906134456 10 212 0.0 0.0 0.00 0.00 0.00 66 1013.1
20260906134245 10 212 0.0 0.0 0.00 0.00 0.00 66 1013.1
20260906134040 10 212 0.0 0.0 0.00 0.00 0.00 66 1013.1
20260906133837 10 212 0.0 0.0 0.00 0.00 0.00 66 1013.1
20260906133119 10 212 0.0 0.0 0.00 0.00 0.00 66 1013.0
20260906132915 10 212 0.0 0.0 0.00 0.00 0.00 66 1013.0
20260906132711 10 212 0.0 0.0 0.00 0.00 0.00 66 1013.0
20260906132508 10 212 0.0 0.0 0.00 0.00 0.00 66 1013.0
20260906132301 10 212 0.0 0.0 0.00 0.00 0.00 66 1012.9
20260906131636 10 212 0.0 0.0 0.00 0.00 0.00 65 1012.9
20260906131241 10 212 0.0 0.0 0.00 0.00 0.00 65 1012.9
20260906130848 10 212 0.0 0.0 0.00 0.00 0.00 65 1012.9
20260906130643 10 212 0.0 0.0 0.00 0.00 0.00 65 1013.0
20260906130435 10 212 0.0 0.0 0.00 0.00 0.00 65 1012.8
20260906130231 10 212 0.0 0.0 0.00 0.00 0.00 65 1012.8
20260906130029 10 212 0.0 0.0 0.00 0.00 0.00 65 1012.9
20260906125820 10 212 0.0 0.0 0.00 0.00 0.00 65 1012.8
20260906125615 10 212 0.0 0.0 0.00 0.00 0.00 65 1012.8
20260906125405 10 212 0.0 0.0 0.00 0.00 0.00 65 1012.8
20260906125158 10 212 0.0 0.0 0.00 0.00 0.00 65 1012.8
20260906124953 10 212 0.0 0.0 0.00 0.00 0.00 65 1012.7
20260906124749 10 212 0.0 0.0 0.00 0.00 0.00 65 1012.7
20260906124544 10 212 0.0 0.0 0.00 0.00 0.00 64 1012.7
20260906124333 10 212 0.0 0.0 0.00 0.00 0.00 64 1012.7
20260906124130 10 212 0.0 0.0 0.00 0.00 0.00 64 1012.8
20260906123929 10 212 0.0 0.0 0.00 0.00 0.00 64 1012.7
20260906123719 10 212 0.0 0.0 0.00 0.00 0.00 64 1012.7
20260906123511 10 212 0.0 0.0 0.00 0.00 0.00 64 1012.6
20260906123257 10 212 0.0 0.0 0.00 0.00 0.00 64 1012.6
20260906123046 10 212 0.0 0.0 0.00 0.00 0.00 64 1012.6
20260906122652 10 212 0.0 0.0 0.00 0.00 0.00 64 1012.7
20260906122449 10 212 0.0 0.0 0.00 0.00 0.00 64 1012.7
20260906122239 10 212 0.0 0.0 0.00 0.00 0.00 64 1012.7
20260906122031 10 212 0.0 0.0 0.00 0.00 0.00 64 1012.7
20260906121821 10 212 0.0 0.0 0.00 0.00 0.00 64 1012.7
20260906121612 10 212 0.0 0.0 0.00 0.00 0.00 64 1012.7
20260906121402 10 212 0.0 0.0 0.00 0.00 0.00 64 1012.6
20260906121156 10 212 0.0 0.0 0.00 0.00 0.00 63 1012.7
20260906120945 10 212 0.0 0.0 0.00 0.00 0.00 63 1012.7
20260906120741 10 212 0.0 0.0 0.00 0.00 0.00 63 1012.6
20260906120539 10 212 0.0 0.0 0.00 0.00 0.00 63 1012.7
20260906120007 10 212 0.0 0.0 0.00 0.00 0.00 63 1012.7
20260906115756 10 212 0.0 0.0 0.00 0.00 0.00 63 1012.7
20260906115546 10 212 0.0 0.0 0.00 0.00 0.00 63 1012.7
20260906115344 10 212 0.0 0.0 0.00 0.00 0.00 63 1012.7
20260906115135 10 212 0.0 0.0 0.00 0.00 0.00 63 1012.7
20260906114928 10 212 0.0 0.0 0.00 0.00 0.00 63 1012.7
20260906114536 10 212 0.0 0.0 0.00 0.00 0.00 63 1012.7
20260906114332 11 212 0.0 0.0 0.00 0.00 0.00 63 1012.7
20260906113938 11 212 0.0 0.0 0.00 0.00 0.00 63 1012.7
20260906113727 11 212 0.0 0.0 0.00 0.00 0.00 63 1012.6
20260906113522 11 212 0.0 0.0 0.00 0.00 0.00 63 1012.6
20260906113311 11 212 0.0 0.0 0.00 0.00 0.00 62 1012.7
20260906113108 11 212 0.0 0.0 0.00 0.00 0.00 62 1012.6
20260906112857 11 212 0.0 0.0 0.00 0.00 0.00 62 1012.6
20260906112645 11 212 0.0 0.0 0.00 0.00 0.00 62 1012.6
20260906112438 11 212 0.0 0.0 0.00 0.00 0.00 62 1012.7
20260906112231 11 212 0.0 0.0 0.00 0.00 0.00 62 1012.6
20260906111651 11 212 0.0 0.0 0.00 0.00 0.00 62 1012.6
20260906111439 11 212 0.0 0.0 0.00 0.00 0.00 62 1012.6
20260906111233 11 212 0.0 0.0 0.00 0.00 0.00 62 1012.6
20260906111030 11 212 0.0 0.0 0.00 0.00 0.00 62 1012.6
20260906110827 11 212 0.0 0.0 0.00 0.00 0.00 62 1012.6
20260906110617 11 212 0.0 0.0 0.00 0.00 0.00 62 1012.6
20260906110409 11 212 0.0 0.0 0.00 0.00 0.00 62 1012.6
20260906110021 11 212 0.0 0.0 0.00 0.00 0.00 62 1012.6
20260906105811 11 212 0.0 0.0 0.00 0.00 0.00 62 1012.6
20260906105602 11 212 0.0 0.0 0.00 0.00 0.00 62 1012.6
20260906105208 11 212 0.0 0.0 0.00 0.00 0.00 62 1012.6
20260906105001 11 212 0.0 0.0 0.00 0.00 0.00 62 1012.7
20260906104749 11 212 0.0 0.0 0.00 0.00 0.00 62 1012.7
20260906104546 11 212 0.0 0.0 0.00 0.00 0.00 61 1012.6
20260906104334 11 212 0.0 0.0 0.00 0.00 0.00 61 1012.7
20260906104126 11 212 0.0 0.0 0.00 0.00 0.00 61 1012.7
20260906103920 11 212 0.0 0.0 0.00 0.00 0.00 61 1012.7
20260906103715 11 212 0.0 0.0 0.00 0.00 0.00 61 1012.7
20260906103323 11 212 0.0 0.0 0.00 0.00 0.00 61 1012.7
20260906103116 11 212 0.0 0.0 0.00 0.00 0.00 61 1012.7
20260906102728 11 212 0.0 0.0 0.00 0.00 0.00 61 1012.7
20260906102526 11 212 0.0 0.0 0.00 0.00 0.00 61 1012.7
20260906102320 11 212 0.0 0.0 0.00 0.00 0.00 61 1012.7
20260906101922 11 212 0.0 0.0 0.00 0.00 0.00 61 1012.6
20260906101710 11 212 0.0 0.0 0.00 0.00 0.00 61 1012.6
20260906101504 11 212 0.0 0.0 0.00 0.00 0.00 61 1012.6
20260906101255 11 212 0.0 0.0 0.00 0.00 0.00 61 1012.6
20260906101052 11 212 0.0 0.0 0.00 0.00 0.00 61 1012.6
20260906100846 11 212 0.0 0.0 0.00 0.00 0.00 61 1012.6
20260906100457 11 212 0.0 0.0 0.00 0.00 0.00 61 1012.6
20260906100108 11 212 0.0 0.0 0.00 0.00 0.00 61 1012.6
20260906095906 11 212 0.0 0.0 0.00 0.00 0.00 61 1012.6
20260906095657 11 212 0.0 0.0 0.00 0.00 0.00 61 1012.6
20260906095308 11 212 0.0 0.0 0.00 0.00 0.00 61 1012.6
20260906095103 11 212 0.0 0.0 0.00 0.00 0.00 61 1012.6
20260906094707 11 212 0.0 0.0 0.00 0.00 0.00 60 1012.6
20260906094456 11 212 0.0 0.0 0.00 0.00 0.00 60 1012.6
20260906094245 11 212 0.0 0.0 0.00 0.00 0.00 60 1012.6
20260906094043 11 212 0.0 0.0 0.00 0.00 0.00 61 1012.6
20260906093838 11 212 0.0 0.0 0.00 0.00 0.00 61 1012.7
20260906093628 11 212 0.0 0.0 0.00 0.00 0.00 61 1012.7
20260906093427 11 212 0.0 0.0 0.00 0.00 0.00 61 1012.7
20260906093220 11 212 0.0 0.0 0.00 0.00 0.00 61 1012.7
20260906093010 11 212 0.0 0.0 0.00 0.00 0.00 60 1012.7
20260906092759 11 212 0.0 0.0 0.00 0.00 0.00 61 1012.8
20260906092548 11 212 0.0 0.0 0.00 0.00 0.00 60 1012.8
20260906092338 11 212 0.0 0.0 0.00 0.00 0.00 60 1012.7
20260906092127 11 212 0.0 0.0 0.00 0.00 0.00 60 1012.8
20260906091914 11 212 0.0 0.0 0.00 0.00 0.00 61 1012.8
20260906091709 11 212 0.0 0.0 0.00 0.00 0.00 60 1012.8
20260906091501 11 212 0.0 0.0 0.00 0.00 0.00 60 1012.8
20260906091254 11 212 0.0 0.0 0.00 0.00 0.00 60 1012.8
20260906091042 11 212 0.0 0.0 0.00 0.00 0.00 60 1012.8
20260906090839 11 212 0.0 0.0 0.00 0.00 0.00 60 1012.8
20260906090626 11 212 0.0 0.0 0.00 0.00 0.00 60 1012.8
20260906090229 11 212 0.0 0.0 0.00 0.00 0.00 60 1012.9
20260906090023 11 212 0.0 0.0 0.00 0.00 0.00 60 1013.0
20260906085821 12 212 0.0 0.0 0.00 0.00 0.00 60 1013.0
20260906085617 12 212 0.0 0.0 0.00 0.00 0.00 60 1013.0
20260906085406 12 212 0.0 0.0 0.00 0.00 0.00 60 1012.9
20260906085203 12 212 0.0 0.0 0.00 0.00 0.00 61 1013.0
20260906084950 12 212 0.0 0.0 0.00 0.00 0.00 61 1013.0
20260906084745 12 212 0.0 0.0 0.00 0.00 0.00 61 1013.0
20260906084357 12 212 0.0 0.0 0.00 0.00 0.00 61 1013.0
20260906084005 12 212 0.0 0.0 0.00 0.00 0.00 61 1013.0
20260906083755 12 212 0.0 0.0 0.00 0.00 0.00 61 1013.0
20260906083546 12 212 0.0 0.0 0.00 0.00 0.00 61 1013.0
20260906083332 12 212 0.0 0.0 0.00 0.00 0.00 61 1013.0
20260906083128 12 212 0.0 0.0 0.00 0.00 0.00 61 1013.0
20260906082736 12 212 0.0 0.0 0.00 0.00 0.00 61 1013.1
20260906082524 12 212 0.0 0.0 0.00 0.00 0.00 61 1013.1
20260906082318 12 212 0.0 0.0 0.00 0.00 0.00 62 1013.1
20260906082115 12 212 0.0 0.0 0.00 0.00 0.00 62 1013.2
20260906081904 12 212 0.0 0.0 0.00 0.00 0.00 62 1013.2
20260906081657 12 212 0.0 0.0 0.00 0.00 0.00 62 1013.2
20260906081123 12 212 0.0 0.0 0.00 0.00 0.00 62 1013.1
20260906080729 12 212 0.0 0.0 0.00 0.00 0.00 63 1013.0
20260906080333 12 212 0.0 0.0 0.00 0.00 0.00 63 1012.9
20260906080120 12 212 0.0 0.0 0.00 0.00 0.00 63 1012.9
20260906075915 12 212 0.0 0.0 0.00 0.00 0.00 63 1012.9
20260906075709 12 212 0.0 0.0 0.00 0.00 0.00 63 1012.9
20260906075323 12 212 0.0 0.0 0.00 0.00 0.00 63 1012.9
20260906075114 12 212 0.0 0.0 0.00 0.00 0.00 63 1012.9
20260906074902 12 212 0.0 0.0 0.00 0.00 0.00 64 1012.9
20260906074506 12 212 0.0 0.0 0.00 0.00 0.00 64 1013.0
20260906074259 12 212 0.0 0.0 0.00 0.00 0.00 64 1012.9
20260906074053 12 212 0.0 0.0 0.00 0.00 0.00 64 1013.0
20260906073848 12 212 0.0 0.0 0.00 0.00 0.00 64 1013.0
20260906073643 12 212 0.0 0.0 0.00 0.00 0.00 64 1012.9
20260906073439 12 212 0.0 0.0 0.00 0.00 0.00 64 1013.0
20260906073227 12 212 0.0 0.0 0.00 0.00 0.00 64 1013.0
20260906073021 12 212 0.0 0.0 0.00 0.00 0.00 64 1012.9
20260906072814 12 212 0.0 0.0 0.00 0.00 0.00 64 1012.9
20260906072421 12 212 0.0 0.0 0.00 0.00 0.00 64 1012.9
20260906072215 12 212 0.0 0.0 0.00 0.00 0.00 64 1012.9
20260906071820 12 212 0.0 0.0 0.00 0.00 0.00 64 1012.9
20260906071610 12 212 0.0 0.0 0.00 0.00 0.00 64 1012.8
20260906071214 12 212 0.0 0.0 0.00 0.00 0.00 64 1012.8
20260906071005 12 212 0.0 0.0 0.00 0.00 0.00 64 1012.8
20260906070755 13 212 0.0 0.0 0.00 0.00 0.00 64 1012.8
20260906070546 13 212 0.0 0.0 0.00 0.00 0.00 63 1012.8
20260906070339 13 212 0.0 0.0 0.00 0.00 0.00 63 1012.8
20260906070130 13 212 0.0 0.0 0.00 0.00 0.00 63 1012.8
20260906065917 13 212 0.0 0.0 0.00 0.00 0.00 63 1012.8
20260906065711 13 212 0.0 0.0 0.00 0.00 0.00 63 1012.8
20260906065314 13 212 0.0 0.0 0.00 0.00 0.00 63 1012.8
20260906065100 13 212 0.0 0.0 0.00 0.00 0.00 63 1012.7
20260906064845 13 212 0.0 0.0 0.00 0.00 0.00 63 1012.8
20260906064637 13 212 0.0 0.0 0.00 0.00 0.00 63 1012.7
20260906064424 13 212 0.0 0.0 0.00 0.00 0.00 63 1012.7
20260906064207 13 212 0.0 0.0 0.00 0.00 0.00 63 1012.7
20260906063958 13 212 0.0 0.0 0.00 0.00 0.00 63 1012.7
20260906063753 13 212 0.0 0.0 0.00 0.00 0.00 63 1012.7
20260906063209 13 212 0.0 0.0 0.00 0.00 0.00 63 1012.6
20260906063003 13 212 0.0 0.0 0.00 0.00 0.00 63 1012.7
20260906062759 13 212 0.0 0.0 0.00 0.00 0.00 62 1012.7
20260906062549 13 212 0.0 0.0 0.00 0.00 0.00 63 1012.7
20260906062342 13 212 0.0 0.0 0.00 0.00 0.00 62 1012.7
20260906062141 13 212 0.0 0.0 0.00 0.00 0.00 62 1012.7
20260906061753 13 212 0.0 0.0 0.00 0.00 0.00 62 1012.6
20260906061547 13 212 0.0 0.0 0.00 0.00 0.00 62 1012.6
20260906061341 13 212 0.0 0.0 0.00 0.00 0.00 62 1012.6
20260906061137 13 212 0.0 0.0 0.00 0.00 0.00 62 1012.6
20260906060935 13 212 0.0 0.0 0.00 0.00 0.00 62 1012.6
20260906060726 13 212 0.0 0.0 0.00 0.00 0.00 62 1012.6
20260906060332 13 212 0.0 0.0 0.00 0.00 0.00 62 1012.6
20260906060129 13 212 0.0 0.0 0.00 0.00 0.00 62 1012.6
20260906055927 13 212 0.0 0.0 0.00 0.00 0.00 61 1012.7
20260906055718 13 212 0.0 0.0 0.00 0.00 0.00 62 1012.7
20260906055140 13 212 0.0 0.0 0.00 0.00 0.00 61 1012.7
20260906054927 14 212 0.0 0.0 0.00 0.00 0.00 61 1012.7
20260906054532 14 212 0.0 0.0 0.00 0.00 0.00 61 1012.6
20260906054321 14 212 0.0 0.0 0.00 0.00 0.00 61 1012.7
20260906054109 14 212 0.0 0.0 0.00 0.00 0.00 61 1012.7
20260906053857 14 212 0.0 0.0 0.00 0.00 0.00 60 1012.7
20260906053651 14 212 0.0 0.0 0.00 0.00 0.00 60 1012.7
20260906053438 14 212 0.0 0.0 0.00 0.00 0.00 60 1012.7
20260906053226 14 212 0.0 0.0 0.00 0.00 0.00 60 1012.7
20260906053016 14 212 0.0 0.0 0.00 0.00 0.00 60 1012.7
20260906052620 14 212 0.0 0.0 0.00 0.00 0.00 60 1012.7
20260906052411 14 212 0.0 0.0 0.00 0.00 0.00 60 1012.7
20260906052204 14 212 0.0 0.0 0.00 0.00 0.00 60 1012.8
20260906051955 15 212 0.0 0.0 0.00 0.00 0.00 59 1012.8
20260906051604 15 212 0.0 0.0 0.00 0.00 0.00 59 1012.8
20260906051400 15 212 0.0 0.0 0.00 0.00 0.00 59 1012.8
20260906051158 15 212 0.0 0.0 0.00 0.00 0.00 59 1012.8
20260906050946 15 212 0.0 0.0 0.00 0.00 0.00 59 1012.8
20260906050739 15 212 0.0 0.0 0.00 0.00 0.00 59 1012.9
20260906050532 15 212 0.0 0.0 0.00 0.00 0.00 59 1012.8
20260906050327 15 212 0.0 0.0 0.00 0.00 0.00 59 1012.8
20260906045929 15 212 0.0 0.0 0.00 0.00 0.00 58 1012.8
20260906045716 15 212 0.0 0.0 0.00 0.00 0.00 58 1012.8
20260906045511 15 212 0.0 0.0 0.00 0.00 0.00 58 1012.7
20260906045309 15 212 0.0 0.0 0.00 0.00 0.00 58 1012.7
20260906045101 15 212 0.0 0.0 0.00 0.00 0.00 58 1012.7
20260906044855 15 212 0.0 0.0 0.00 0.00 0.00 57 1012.7
20260906044643 15 212 0.0 0.0 0.00 0.00 0.00 57 1012.7
20260906044436 15 212 0.0 0.0 0.00 0.00 0.00 57 1012.6
20260906044227 15 212 0.0 0.0 0.00 0.00 0.00 57 1012.7
20260906044014 15 212 0.0 0.0 0.00 0.00 0.00 57 1012.8
20260906043622 16 212 0.0 0.0 0.00 0.00 0.00 57 1012.7
20260906043417 16 212 0.0 0.0 0.00 0.00 0.00 57 1012.7
20260906043215 16 212 0.0 0.0 0.00 0.00 0.00 56 1012.6
20260906043004 16 212 0.0 0.0 0.00 0.00 0.00 56 1012.6
20260906042756 16 212 0.0 0.0 0.00 0.00 0.00 56 1012.5
20260906042546 16 212 0.0 0.0 0.00 0.00 0.00 56 1012.6
20260906042335 16 212 0.0 0.0 0.00 0.00 0.00 56 1012.5
20260906042130 16 212 0.0 0.0 0.00 0.00 0.00 56 1012.5
20260906041925 16 212 0.0 0.0 0.00 0.00 0.00 55 1012.5
20260906041715 16 212 0.0 0.0 0.00 0.00 0.00 55 1012.5
20260906041326 16 212 0.0 0.0 0.00 0.00 0.00 55 1012.4
20260906041120 16 212 0.0 0.0 0.00 0.00 0.00 55 1012.4
20260906040918 16 212 0.0 0.0 0.00 0.00 0.00 55 1012.4
20260906040715 16 212 0.0 0.0 0.00 0.00 0.00 54 1012.4
20260906040506 16 212 0.0 0.0 0.00 0.00 0.00 54 1012.4
20260906040257 17 212 0.0 0.0 0.00 0.00 0.00 54 1012.3
20260906035908 17 212 0.0 0.0 0.00 0.00 0.00 54 1012.3
20260906035700 17 212 0.0 0.0 0.00 0.00 0.00 54 1012.3
20260906035455 17 212 0.0 0.0 0.00 0.00 0.00 54 1012.3
20260906034731 17 212 0.0 0.0 0.00 0.00 0.00 53 1012.2
20260906034528 17 212 0.0 0.0 0.00 0.00 0.00 52 1012.3
20260906034324 17 212 0.0 0.0 0.00 0.00 0.00 52 1012.3
20260906034111 17 212 0.0 0.0 0.00 0.00 0.00 52 1012.2
20260906033908 17 212 0.0 0.0 0.00 0.00 0.00 52 1012.3
20260906033705 17 212 0.0 0.0 0.00 0.00 0.00 52 1012.2
20260906033456 17 212 0.0 0.0 0.00 0.00 0.00 51 1012.2
20260906033248 18 212 0.0 0.0 0.00 0.00 0.00 51 1012.2
20260906033045 18 212 0.0 0.0 0.00 0.00 0.00 51 1012.1
20260906032838 18 212 0.0 0.0 0.00 0.00 0.00 51 1012.2
20260906032444 18 212 0.0 0.0 0.00 0.00 0.00 51 1012.1
20260906032241 18 212 0.0 0.0 0.00 0.00 0.00 51 1012.1
20260906032037 18 212 0.0 0.0 0.00 0.00 0.00 50 1012.1
20260906031831 18 212 0.0 0.0 0.00 0.00 0.00 50 1012.1
20260906031436 18 212 0.0 0.0 0.00 0.00 0.00 50 1012.1
20260906031226 18 212 0.0 0.0 0.00 0.00 0.00 50 1012.1
20260906031023 18 212 0.0 0.0 0.00 0.00 0.00 50 1012.0
20260906030819 18 212 0.0 0.0 0.00 0.00 0.00 49 1012.0
20260906030618 19 212 0.0 0.0 0.00 0.00 0.00 49 1012.0
20260906030409 19 212 0.0 0.0 0.00 0.00 0.00 49 1011.9
20260906030203 19 212 0.0 0.0 0.00 0.00 0.00 49 1012.0
20260906025956 19 212 0.0 0.0 0.00 0.00 0.00 49 1012.0
20260906025743 19 212 0.0 0.0 0.00 0.00 0.00 49 1012.0
20260906025357 20 212 0.0 0.0 0.00 0.00 0.00 48 1011.9
20260906025149 20 212 0.0 0.0 0.00 0.00 0.00 48 1011.9
20260906024943 20 212 0.0 0.0 0.00 0.00 0.00 48 1011.9
20260906024733 20 212 0.0 0.0 0.00 0.00 0.00 48 1011.9
20260906024527 20 212 0.0 0.0 0.00 0.00 0.00 48 1011.9
20260906024322 20 212 0.0 0.0 0.00 0.00 0.00 48 1011.8
20260906024112 20 212 0.0 0.0 0.00 0.00 0.00 48 1011.9
20260906023903 20 212 0.0 0.0 0.00 0.00 0.00 47 1011.9
20260906023701 20 212 0.0 0.0 0.00 0.00 0.00 47 1011.8
20260906023453 20 212 0.0 0.0 0.00 0.00 0.00 47 1011.9
20260906023250 20 212 0.0 0.0 0.00 0.00 0.00 47 1011.9
20260906023042 21 212 0.0 0.0 0.00 0.00 0.00 47 1011.8
20260906022841 21 212 0.0 0.0 0.00 0.00 0.00 47 1011.8
20260906022632 21 212 0.0 0.0 0.00 0.00 0.00 46 1011.9
20260906022238 21 212 0.0 0.0 0.00 0.00 0.00 46 1011.8
20260906022025 21 212 0.0 0.0 0.00 0.00 0.00 46 1011.8
20260906021821 21 212 0.0 0.0 0.00 0.00 0.00 46 1011.9
20260906021613 21 212 0.0 0.0 0.00 0.00 0.00 45 1011.8
20260906021359 21 212 0.0 0.0 0.00 0.00 0.00 45 1011.8
20260906021152 21 212 0.0 0.0 0.00 0.00 0.00 45 1011.8
20260906020945 21 212 0.0 0.0 0.00 0.00 0.00 45 1011.8
20260906020551 22 212 0.0 0.0 0.00 0.00 0.00 45 1011.9
20260906020346 22 212 0.0 0.0 0.00 0.00 0.00 44 1011.9
20260906015956 22 212 0.0 0.0 0.00 0.00 0.00 44 1011.9
20260906015609 22 212 0.0 0.0 0.00 0.00 0.00 44 1011.9
20260906015357 22 212 0.0 0.0 0.00 0.00 0.00 44 1011.8
20260906015144 22 212 0.0 0.0 0.00 0.00 0.00 43 1011.8
20260906014935 22 212 0.0 0.0 0.00 0.00 0.00 43 1011.9
20260906014725 22 212 0.0 0.0 0.00 0.00 0.00 43 1011.9
20260906014513 22 212 0.0 0.0 0.00 0.00 0.00 43 1011.9
20260906014307 22 212 0.0 0.0 0.00 0.00 0.00 42 1011.9
20260906014100 22 212 0.0 0.0 0.00 0.00 0.00 42 1012.0
20260906013850 23 212 0.0 1.6 0.00 0.00 0.00 42 1011.9
20260906013643 23 212 0.0 0.0 0.00 0.00 0.00 42 1012.0
20260906012923 23 212 0.0 0.0 0.00 0.00 0.00 42 1011.9
20260906012716 23 212 0.0 0.0 0.00 0.00 0.00 41 1012.0
20260906012509 23 212 0.0 0.0 0.00 0.00 0.00 42 1011.9
20260906012116 23 212 0.0 0.0 0.00 0.00 0.00 41 1012.0
20260906011903 23 212 0.0 1.6 0.00 0.00 0.00 40 1012.0
20260906011657 23 212 0.0 1.6 0.00 0.00 0.00 40 1012.0
20260906011455 23 212 0.0 1.6 0.00 0.00 0.00 40 1012.1
20260906011245 23 212 0.0 1.6 0.00 0.00 0.00 40 1012.0
20260906011034 23 212 0.0 0.0 0.00 0.00 0.00 40 1012.0
20260906010821 23 212 0.0 0.0 0.00 0.00 0.00 40 1012.0
20260906010609 24 212 0.0 4.8 0.00 0.00 0.00 39 1012.0
20260906010358 24 212 0.0 1.6 0.00 0.00 0.00 38 1012.0
20260906010148 24 212 0.0 0.0 0.00 0.00 0.00 39 1012.0
20260906005946 24 212 0.0 6.4 0.00 0.00 0.00 39 1012.0
20260906005735 24 212 0.0 4.8 0.00 0.00 0.00 38 1012.0
20260906005526 24 212 0.0 4.8 0.00 0.00 0.00 38 1012.0
20260906005317 24 212 0.0 4.8 0.00 0.00 0.00 37 1011.9
20260906005105 25 211 0.0 4.8 0.00 0.00 0.00 37 1012.0
20260906004854 25 218 0.0 4.8 0.00 0.00 0.00 38 1012.0
20260906004642 25 214 0.0 3.2 0.00 0.00 0.00 37 1012.0
20260906004437 25 214 0.0 0.0 0.00 0.00 0.00 37 1012.0
20260906004235 25 214 0.0 3.2 0.00 0.00 0.00 37 1012.0
20260906004028 25 214 0.0 3.2 0.00 0.00 0.00 36 1012.0
20260906003632 25 215 0.0 6.4 0.00 0.00 0.00 36 1012.0
20260906003421 25 216 0.0 6.4 0.00 0.00 0.00 36 1012.0
20260906003210 25 216 1.6 6.4 0.00 0.00 0.00 36 1012.0
20260906002823 25 221 0.0 6.4 0.00 0.00 0.00 36 1012.0
20260906002611 25 231 0.0 8.0 0.00 0.00 0.00 37 1012.1
20260906002401 25 232 0.0 8.0 0.00 0.00 0.00 37 1012.0
20260906002158 25 205 0.0 8.0 0.00 0.00 0.00 37 1011.9
20260906001943 25 205 0.0 8.0 0.00 0.00 0.00 37 1011.9
20260906001741 25 205 0.0 8.0 0.00 0.00 0.00 37 1011.9
20260906001528 25 203 1.6 8.0 0.00 0.00 0.00 36 1012.0
20260906001319 25 188 1.6 8.0 0.00 0.00 0.00 37 1011.9
20260906001113 25 218 1.6 8.0 0.00 0.00 0.00 36 1012.0
20260906000904 26 213 1.6 8.0 0.00 0.00 0.00 36 1012.0
20260906000510 26 211 1.6 9.7 0.00 0.00 0.00 36 1012.0
20260906000307 26 211 1.6 9.7 0.00 0.00 0.00 35 1012.0
20260906000100 26 210 0.0 9.7 0.00 0.00 0.00 38 1012.1
20260905235850 26 210 1.6 9.7 0.00 0.00 0.00 37 1012.1
20260905235456 26 209 1.6 9.7 0.00 0.00 0.00 36 1012.1
20260905235250 26 217 1.6 9.7 0.00 0.00 0.00 38 1012.2
20260905235049 26 215 1.6 9.7 0.00 0.00 0.00 36 1012.1
20260905234846 26 227 0.0 9.7 0.00 0.00 0.00 37 1012.1
20260905234641 26 272 0.0 9.7 0.00 0.00 0.00 37 1012.1
20260905234431 26 215 0.0 9.7 0.00 0.00 0.00 37 1012.2
20260905234224 26 208 0.0 9.7 0.00 0.00 0.00 38 1012.1
20260905234022 26 205 1.6 9.7 0.00 0.00 0.00 36 1012.1
20260905233818 26 205 1.6 9.7 0.00 0.00 0.00 36 1012.2
20260905233607 26 202 1.6 9.7 0.00 0.00 0.00 36 1012.2
20260905233356 26 215 1.6 9.7 0.00 0.00 0.00 37 1012.1
20260905233147 26 168 1.6 9.7 0.00 0.00 0.00 36 1012.1
20260905232943 26 219 1.6 9.7 0.00 0.00 0.00 36 1012.1
20260905232734 26 215 1.6 9.7 0.00 0.00 0.00 36 1012.1
20260905232532 26 215 1.6 12.9 0.00 0.00 0.00 36 1012.1
20260905232326 26 214 1.6 12.9 0.00 0.00 0.00 35 1012.2
20260905232117 26 224 1.6 12.9 0.00 0.00 0.00 36 1012.2
20260905231915 26 221 0.0 12.9 0.00 0.00 0.00 36 1012.2
20260905231522 26 213 1.6 12.9 0.00 0.00 0.00 37 1012.3
20260905231319 26 212 1.6 12.9 0.00 0.00 0.00 36 1012.3
20260905230931 26 196 1.6 12.9 0.00 0.00 0.00 37 1012.4
20260905230719 26 217 1.6 8.0 0.00 0.00 0.00 38 1012.5
20260905230515 26 218 0.0 8.0 0.00 0.00 0.00 38 1012.4
20260905230309 26 219 1.6 6.4 0.00 0.00 0.00 38 1012.4
20260905225921 25 222 1.6 4.8 0.00 0.00 0.00 38 1012.5
20260905225716 25 222 3.2 11.3 0.00 0.00 0.00 38 1012.5
20260905225143 26 234 3.2 11.3 0.00 0.00 0.00 37 1012.6
20260905224933 25 175 1.6 11.3 0.00 0.00 0.00 37 1012.6
20260905224543 25 83 1.6 11.3 0.00 0.00 0.00 38 1012.6
20260905224331 26 197 0.0 11.3 0.00 0.00 0.00 39 1012.7
20260905224124 26 234 0.0 11.3 0.00 0.00 0.00 38 1012.6
20260905223918 26 209 0.0 8.0 0.00 0.00 0.00 38 1012.5
20260905223523 26 157 1.6 8.0 0.00 0.00 0.00 38 1012.6
20260905223319 25 232 1.6 8.0 0.00 0.00 0.00 38 1012.6
20260905222925 25 215 0.0 8.0 0.00 0.00 0.00 38 1012.6
20260905222722 25 224 1.6 11.3 0.00 0.00 0.00 38 1012.6
20260905222513 25 213 0.0 11.3 0.00 0.00 0.00 40 1012.7
20260905221933 25 223 1.6 11.3 0.00 0.00 0.00 40 1012.8
20260905221721 25 225 3.2 11.3 0.00 0.00 0.00 40 1012.8
20260905221515 25 215 3.2 11.3 0.00 0.00 0.00 39 1012.8
20260905221314 25 209 3.2 11.3 0.00 0.00 0.00 40 1012.8
20260905221104 25 79 3.2 11.3 0.00 0.00 0.00 40 1012.8
20260905220859 25 230 1.6 11.3 0.00 0.00 0.00 39 1012.8
20260905220656 25 226 1.6 9.7 0.00 0.00 0.00 41 1012.8
20260905220310 25 209 1.6 9.7 0.00 0.00 0.00 40 1012.8
20260905220103 25 199 1.6 8.0 0.00 0.00 0.00 41 1012.8
20260905215858 25 216 1.6 8.0 0.00 0.00 0.00 42 1012.8
20260905215654 25 226 1.6 8.0 0.00 0.00 0.00 41 1012.8
20260905215446 25 75 1.6 6.4 0.00 0.00 0.00 40 1012.8
20260905215241 26 213 1.6 9.7 0.00 0.00 0.00 40 1012.9
20260905215036 26 213 1.6 9.7 0.00 0.00 0.00 39 1012.9
20260905214834 26 218 1.6 9.7 0.00 0.00 0.00 39 1012.9
20260905214626 26 211 0.0 9.7 0.00 0.00 0.00 39 1012.8
20260905214230 26 222 0.0 6.4 0.00 0.00 0.00 39 1012.8
20260905214017 25 244 0.0 4.8 0.00 0.00 0.00 40 1013.0
20260905213815 25 194 0.0 0.0 0.00 0.00 0.00 42 1013.0
20260905213608 25 194 3.2 12.9 0.00 0.00 0.00 42 1013.1
20260905213356 25 209 3.2 12.9 0.00 0.00 0.00 41 1013.1
20260905213152 25 207 3.2 12.9 0.00 0.00 0.00 40 1013.0
20260905212941 25 231 3.2 12.9 0.00 0.00 0.00 40 1013.1
20260905212736 25 257 1.6 12.9 0.00 0.00 0.00 40 1013.1
20260905212529 25 238 1.6 12.9 0.00 0.00 0.00 40 1013.0
20260905212319 25 213 3.2 12.9 0.00 0.00 0.00 40 1013.1
20260905212109 25 196 3.2 12.9 0.00 0.00 0.00 39 1013.1
20260905211902 25 223 3.2 12.9 0.00 0.00 0.00 42 1013.0
20260905211656 25 225 3.2 12.9 0.00 0.00 0.00 39 1013.1
20260905211452 25 207 3.2 12.9 0.00 0.00 0.00 40 1013.1
20260905211249 25 195 3.2 12.9 0.00 0.00 0.00 40 1013.1
20260905211043 25 209 3.2 12.9 0.00 0.00 0.00 41 1013.1
20260905210839 25 236 1.6 12.9 0.00 0.00 0.00 41 1013.1
20260905210301 25 226 1.6 12.9 0.00 0.00 0.00 42 1013.0
20260905205909 25 54 1.6 12.9 0.00 0.00 0.00 42 1013.0
20260905205657 25 200 1.6 12.9 0.00 0.00 0.00 42 1013.0
20260905205452 25 329 1.6 12.9 0.00 0.00 0.00 41 1013.0
20260905205245 25 304 1.6 12.9 0.00 0.00 0.00 42 1013.0
20260905205035 25 159 1.6 12.9 0.00 0.00 0.00 42 1013.1
20260905204824 25 248 1.6 12.9 0.00 0.00 0.00 42 1013.1
20260905204622 24 225 1.6 12.9 0.00 0.00 0.00 42 1013.1
20260905204420 24 215 0.0 9.7 0.00 0.00 0.00 44 1013.0
20260905204207 24 235 1.6 9.7 0.00 0.00 0.00 42 1013.1
20260905203957 24 235 1.6 9.7 0.00 0.00 0.00 42 1013.1
20260905203750 24 235 1.6 9.7 0.00 0.00 0.00 43 1013.1
20260905203209 24 218 1.6 11.3 0.00 0.00 0.00 43 1013.1
20260905203005 24 193 0.0 11.3 0.00 0.00 0.00 45 1013.1
20260905202802 24 195 1.6 11.3 0.00 0.00 0.00 45 1013.1
20260905202555 24 205 1.6 11.3 0.00 0.00 0.00 43 1013.2
20260905202343 24 211 1.6 11.3 0.00 0.00 0.00 43 1013.2
20260905201949 24 39 0.0 11.3 0.00 0.00 0.00 45 1013.2
20260905201742 24 218 0.0 11.3 0.00 0.00 0.00 44 1013.2
20260905201532 24 218 1.6 11.3 0.00 0.00 0.00 44 1013.2
20260905201324 24 225 0.0 9.7 0.00 0.00 0.00 46 1013.2
20260905201115 23 225 1.6 9.7 0.00 0.00 0.00 44 1013.2
20260905200905 23 223 1.6 11.3 0.00 0.00 0.00 45 1013.3
20260905200654 24 213 1.6 11.3 0.00 0.00 0.00 44 1013.2
20260905200308 23 218 1.6 11.3 0.00 0.00 0.00 45 1013.3
20260905195919 23 215 1.6 11.3 0.00 0.00 0.00 45 1013.2
20260905195715 23 215 1.6 11.3 0.00 0.00 0.00 45 1013.2
20260905195512 23 207 1.6 11.3 0.00 0.00 0.00 45 1013.2
20260905195306 23 207 1.6 11.3 0.00 0.00 0.00 46 1013.3
20260905194910 23 210 0.0 8.0 0.00 0.00 0.00 46 1013.3
20260905194704 23 213 1.6 8.0 0.00 0.00 0.00 46 1013.2
20260905194454 23 213 0.0 8.0 0.00 0.00 0.00 45 1013.2
20260905194249 23 214 1.6 9.7 0.00 0.00 0.00 46 1013.3
20260905194046 23 214 1.6 9.7 0.00 0.00 0.00 46 1013.3
20260905193836 22 214 1.6 9.7 0.00 0.00 0.00 47 1013.2
20260905193625 22 208 1.6 9.7 0.00 0.00 0.00 47 1013.3
20260905193415 22 227 1.6 11.3 0.00 0.00 0.00 48 1013.4
20260905193208 22 209 0.0 11.3 0.00 0.00 0.00 49 1013.4
20260905193001 22 222 0.0 11.3 0.00 0.00 0.00 50 1013.4
20260905192752 22 202 1.6 11.3 0.00 0.00 0.00 47 1013.4
20260905192544 22 202 1.6 11.3 0.00 0.00 0.00 47 1013.4
20260905192339 22 221 1.6 11.3 0.00 0.00 0.00 50 1013.4
20260905192133 22 221 3.2 11.3 0.00 0.00 0.00 48 1013.3